Simultaneous Nadir Overpasses (SNOs) Predictions

Prediction of SNOs between GOES-16 and NOAA-19 Satellite Orbit:

Table of predicted SNOs for the next 14.0 days since TLE Epoch: 4/3/2020
Index Date Time (GOES-16) GOES-16 Lat,Lon NOAA-19 Lat,Lon Distance(km) Time Diff (sec)
1 04/04/2020 11:00:09 0.01, -75.16 0.90, -78.91 428.35 80
2 04/05/2020 10:48:29 0.01, -75.18 0.21, -76.07 101.07 80
3 04/06/2020 10:34:09 0.01, -75.20 -0.43, -73.21 226.39 80
4 04/08/2020 22:55:11 -0.01, -75.23 -0.68, -78.19 337.05 80
5 04/09/2020 22:43:30 -0.01, -75.25 -0.04, -75.33 9.08 80
6 04/10/2020 22:34:31 -0.02, -75.28 0.66, -72.49 319.03 80
7 04/13/2020 10:55:34 0.02, -75.36 0.50, -77.46 239.93 80
8 04/14/2020 10:41:13 0.02, -75.39 -0.14, -74.61 88.52 80
9 04/15/2020 10:29:34 0.02, -75.42 -0.85, -71.77 417.12 80
10 04/16/2020 23:02:15 -0.01, -75.45 -0.96, -79.59 472.71 80




NCC Satellite Simultaneous Nadir Overpasses (SNOs) Prediction Service
